Weather History for Istanbul, Turkey

Change the Weather History Date:

Tuesday, December 4, 2012

  Actual Average Record
Temperature  
Mean Temperature 40 °F -  
Max Temperature 42 °F 49 °F 68 °F (2008)
Min Temperature 37 °F 40 °F 37 °F (2012)
Degree Days  
Heating Degree Days 26    
Moisture  
Dew Point 38 °F    
Average Humidity 83    
Maximum Humidity 94    
Minimum Humidity 64    
Precipitation  
Precipitation 0.24 in - - ()
Sea Level Pressure  
Sea Level Pressure 29.68 in    
Wind  
Wind Speed 14 mph ()    
Max Wind Speed 26 mph    
Max Gust Speed 30 mph    
Visibility 5.7 miles    
Events Rain , Thunderstorm    
Averages and records for this station are not official NWS values.
T = Trace of Precipitation, MM = Missing Value Source: Averaged Metar Reports

Daily Weather History Graph

Daily Weather History Graph

Search for Another Location

Airport:

Trip Planner

Search our weather history database for the weather conditions in past years. The results will help you decide how hot, cold, wet, or windy it might be!

Date:

Astronomy

Dec. 04, 2012 Rise Set
Actual Time 7:13 AM EET 4:36 PM EET
Civil Twilight 6:42 AM EET 5:07 PM EET
Nautical Twilight 6:08 AM EET 5:41 PM EET
Astronomical Twilight 5:35 AM EET 6:14 PM EET
Moon 10:05 PM EET (12/4) 10:56 AM EET (12/4)
Length of Visible Light 10h 24m
Length of Day
9h 23m
Waning Gibbous, 72% of the Moon is Illuminated
Dec 4
Waning Gibbous
Dec 6
Last Quarter
Dec 13
New
Dec 20
First Quarter
Dec 28
Full

Hourly Weather History & Observations

Time (EET) Temp. Windchill Dew Point Humidity Pressure Visibility Wind Dir Wind Speed Gust Speed Precip Events Conditions
12:20 AM 51.8 °F - 50.0 °F 94% 29.44 in 6.2 mi SSW 18.4 mph - N/A Rain , Thunderstorm Light Thunderstorms and Rain
12:50 AM 51.8 °F - 48.2 °F 88% 29.42 in 6.2 mi SSW 8.1 mph - N/A Rain Light Rain Showers
1:20 AM 53.6 °F - 50.0 °F 88% 29.42 in 6.2 mi SSW 16.1 mph - N/A   Mostly Cloudy
1:50 AM 53.6 °F - 48.2 °F 82% 29.42 in 6.2 mi SSW 16.1 mph - N/A   Mostly Cloudy
2:00 AM 53 °F - 48 °F 76% 29.43 in 6 mi SSW 16.1 mph - - Rain Light Rain Showers
2:20 AM 53.6 °F - 50.0 °F 88% 29.42 in 6.2 mi SSW 16.1 mph - N/A   Mostly Cloudy
2:50 AM 51.8 °F - 48.2 °F 88% 29.42 in 6.2 mi West 10.4 mph - N/A Rain Light Rain Showers
3:20 AM 50.0 °F - 46.4 °F 87% 29.42 in 6.2 mi WNW 12.7 mph 26.5 mph N/A Rain Light Rain Showers
3:50 AM 46.4 °F 38.5 °F 44.6 °F 93% 29.44 in 6.2 mi NW 21.9 mph - N/A Rain Light Rain Showers
4:20 AM 44.6 °F 35.5 °F 41.0 °F 87% 29.44 in 6.2 mi NNW 25.3 mph - N/A Rain Light Rain Showers
4:50 AM 42.8 °F 33.3 °F 41.0 °F 93% 29.44 in 6.2 mi NW 24.2 mph - N/A Rain Light Rain Showers
5:20 AM 42.8 °F 33.3 °F 39.2 °F 87% 29.47 in 6.2 mi NNW 24.2 mph - N/A Rain Light Rain Showers
5:50 AM 41.0 °F 31.4 °F 39.2 °F 93% 29.50 in 6.2 mi NNW 21.9 mph - N/A Rain Light Rain Showers
6:20 AM 41.0 °F 30.9 °F 37.4 °F 87% 29.50 in 6.2 mi NNW 24.2 mph - N/A Rain Light Rain Showers
6:50 AM 41.0 °F 30.9 °F 37.4 °F 87% 29.53 in 6.2 mi NW 24.2 mph - N/A Rain Light Rain Showers
7:20 AM 41.0 °F 30.9 °F 37.4 °F 87% 29.56 in 6.2 mi NW 24.2 mph - N/A Rain Light Rain Showers
7:50 AM 41.0 °F 30.5 °F 35.6 °F 81% 29.59 in 6.2 mi NW 26.5 mph - N/A Rain Light Rain Showers
8:00 AM 40 °F - 36 °F 82% 29.60 in 6 mi NW 26.5 mph - - Rain Light Rain Showers
8:20 AM 41.0 °F 32.2 °F 37.4 °F 87% 29.59 in 6.2 mi NW 18.4 mph 29.9 mph N/A Rain Light Rain Showers
8:50 AM 41.0 °F 32.2 °F 37.4 °F 87% 29.62 in 4.3 mi WNW 18.4 mph - N/A Rain Light Rain Showers
9:20 AM 41.0 °F 33.1 °F 37.4 °F 87% 29.65 in 5.0 mi WNW 15.0 mph - N/A Rain Light Rain Showers
9:50 AM 41.0 °F 32.8 °F 37.4 °F 87% 29.65 in 5.0 mi WNW 16.1 mph - N/A Rain Light Rain Showers
10:20 AM 41.0 °F 32.5 °F 39.2 °F 93% 29.68 in 5.0 mi NW 17.3 mph - N/A Rain Light Rain Showers
10:50 AM 41.0 °F 32.5 °F 39.2 °F 93% 29.71 in 4.3 mi NW 17.3 mph - N/A Rain Light Rain Showers
11:20 AM 41.0 °F 32.2 °F 39.2 °F 93% 29.71 in 5.0 mi NW 18.4 mph - N/A Rain Light Rain Showers
11:50 AM 42.8 °F 34.8 °F 39.2 °F 87% 29.71 in 5.0 mi NW 17.3 mph - N/A Rain Light Rain Showers
12:20 PM 42.8 °F 34.8 °F 39.2 °F 87% 29.71 in 5.0 mi NW 17.3 mph - N/A Rain Light Rain Showers
12:50 PM 42.8 °F 35.8 °F 39.2 °F 87% 29.74 in 5.0 mi NW 13.8 mph - N/A Rain Light Rain Showers
1:20 PM 41.0 °F 32.8 °F 37.4 °F 87% 29.77 in 4.3 mi WNW 16.1 mph - N/A Rain Light Rain Showers
1:50 PM 41.0 °F 32.2 °F 37.4 °F 87% 29.77 in 4.3 mi NW 18.4 mph - N/A Rain Light Rain Showers
2:00 PM 40 °F - 37 °F 86% 29.78 in 4 mi WNW 11.5 mph - - Rain Light Rain Showers
2:20 PM 41.0 °F 33.5 °F 37.4 °F 87% 29.77 in 4.3 mi NW 13.8 mph - N/A Rain Light Rain Showers
2:50 PM 41.0 °F 32.5 °F 35.6 °F 81% 29.80 in 5.0 mi WNW 17.3 mph - N/A Rain Light Rain Showers
3:20 PM 41.0 °F 33.9 °F 35.6 °F 81% 29.80 in 4.3 mi WNW 12.7 mph - N/A Rain Light Rain Showers
3:50 PM 41.0 °F 33.1 °F 35.6 °F 81% 29.83 in 4.3 mi WNW 15.0 mph - N/A Rain Light Rain Showers
4:20 PM 41.0 °F 35.8 °F 35.6 °F 81% 29.83 in 6.2 mi WNW 8.1 mph - N/A   Mostly Cloudy
4:50 PM 41.0 °F 35.8 °F 35.6 °F 81% 29.83 in 6.2 mi WNW 8.1 mph - N/A   Mostly Cloudy
5:20 PM 42.8 °F 38.0 °F 33.8 °F 70% 29.86 in 6.2 mi WNW 8.1 mph - N/A   Mostly Cloudy
5:50 PM 42.8 °F 39.3 °F 33.8 °F 70% 29.86 in 6.2 mi West 5.8 mph - N/A   Mostly Cloudy
6:20 PM 42.8 °F 40.1 °F 33.8 °F 70% 29.86 in 6.2 mi West 4.6 mph - N/A   Mostly Cloudy
6:50 PM 42.8 °F 38.6 °F 33.8 °F 70% 29.89 in 6.2 mi NNW 6.9 mph - N/A   Scattered Clouds
7:20 PM 41.0 °F 38.0 °F 32.0 °F 70% 29.86 in 6.2 mi North 4.6 mph - N/A   Mostly Cloudy
7:50 PM 41.0 °F 38.0 °F 32.0 °F 70% 29.86 in 6.2 mi NNW 4.6 mph - N/A   Scattered Clouds
8:00 PM 40 °F - 32 °F 64% 29.89 in 6 mi NNW 4.6 mph - -   Partly Cloudy
8:20 PM 39.2 °F 35.9 °F 32.0 °F 75% 29.86 in 6.2 mi NNW 4.6 mph - N/A   Scattered Clouds
8:50 PM 41.0 °F - 32.0 °F 70% 29.86 in 6.2 mi Variable 1.2 mph - N/A   Scattered Clouds
9:20 PM 41.0 °F - 32.0 °F 70% 29.86 in 6.2 mi Calm Calm - N/A   Scattered Clouds
9:50 PM 41.0 °F - 33.8 °F 76% 29.86 in 6.2 mi Calm Calm - N/A   Scattered Clouds
10:20 PM 41.0 °F - 33.8 °F 76% 29.86 in 6.2 mi Variable 1.2 mph - N/A   Scattered Clouds
10:50 PM 41.0 °F - 33.8 °F 76% 29.86 in 6.2 mi Variable 1.2 mph - N/A   Scattered Clouds
11:20 PM 37.4 °F - 32.0 °F 81% 29.86 in 5.0 mi NW 2.3 mph - N/A   Scattered Clouds
11:50 PM 39.2 °F - 35.6 °F 87% 29.86 in 6.2 mi Variable 1.2 mph - N/A   Scattered Clouds